DAL1719 KJFK-KSEA

Flight info

Callsign DAL1719
Flight time N/A
Altitude 32000
Route COATE Q436 RAAKK Q440 HUFFR KP06C KU12U MLP GLASR3
Aircraft A21N/M-SDE2E3FGHIRWXY/LB1

Departure

Time 2026-05-09 15:40
Airport John F. Kennedy International Airport (KJFK)

Arrival

Time N/A
Airport Seattle–Tacoma International Airport (KSEA)
Time Latitude Longitude Altitude Speed Heading
2026-05-09 15:12 40.63956 -73.78046 21 ft 0 kts 263°
2026-05-09 15:27 40.63957 -73.78033 22 ft 4 kts 263°
2026-05-09 15:27 40.63959 -73.78005 23 ft 3 kts 262°
2026-05-09 15:27 40.63967 -73.77973 24 ft 4 kts 236°
2026-05-09 15:28 40.63985 -73.77952 23 ft 4 kts 193°
2026-05-09 15:28 40.63997 -73.77950 22 ft 0 kts 174°
2026-05-09 15:30 40.63991 -73.77949 22 ft 3 kts 174°
2026-05-09 15:31 40.63958 -73.77945 23 ft 7 kts 174°
2026-05-09 15:31 40.63899 -73.77936 21 ft 10 kts 173°
2026-05-09 15:31 40.63837 -73.77926 21 ft 11 kts 173°
2026-05-09 15:31 40.63751 -73.77913 21 ft 14 kts 173°
2026-05-09 15:32 40.63646 -73.77897 21 ft 9 kts 173°
2026-05-09 15:32 40.63577 -73.77868 21 ft 12 kts 144°
2026-05-09 15:32 40.63529 -73.77772 21 ft 14 kts 121°
2026-05-09 15:32 40.63516 -73.77702 22 ft 8 kts 57°
2026-05-09 15:33 40.63571 -73.77653 22 ft 11 kts 30°
2026-05-09 15:33 40.63650 -73.77593 23 ft 15 kts 30°
2026-05-09 15:33 40.63747 -73.77518 23 ft 18 kts 30°
2026-05-09 15:33 40.63858 -73.77431 22 ft 19 kts 31°
2026-05-09 15:34 40.63971 -73.77342 22 ft 18 kts 30°
2026-05-09 15:34 40.64073 -73.77264 22 ft 17 kts 30°
2026-05-09 15:34 40.64180 -73.77182 22 ft 18 kts 30°
2026-05-09 15:34 40.64289 -73.77098 22 ft 18 kts 31°
2026-05-09 15:35 40.64391 -73.77018 21 ft 15 kts 30°
2026-05-09 15:35 40.64472 -73.76988 21 ft 11 kts
2026-05-09 15:35 40.64548 -73.76958 21 ft 12 kts 33°
2026-05-09 15:35 40.64619 -73.76898 23 ft 14 kts 31°
2026-05-09 15:36 40.64706 -73.76831 23 ft 15 kts 30°
2026-05-09 15:36 40.64799 -73.76760 25 ft 16 kts 30°
2026-05-09 15:36 40.64897 -73.76685 21 ft 17 kts 30°
2026-05-09 15:36 40.64931 -73.76602 21 ft 7 kts 119°
2026-05-09 15:37 40.64924 -73.76587 21 ft 0 kts 122°
2026-05-09 15:38 40.64919 -73.76577 24 ft 4 kts 122°
2026-05-09 15:38 40.64891 -73.76519 21 ft 11 kts 122°
2026-05-09 15:38 40.64833 -73.76504 21 ft 6 kts 210°
2026-05-09 15:39 40.64829 -73.76507 21 ft 0 kts 211°
2026-05-09 15:39 40.64787 -73.76539 21 ft 31 kts 211°
2026-05-09 15:39 40.64385 -73.76848 21 ft 102 kts 211°
2026-05-09 15:39 40.63587 -73.77477 25 ft 162 kts 211°
2026-05-09 15:40 40.62566 -73.78298 457 ft 172 kts 209°
2026-05-09 15:40 40.61556 -73.79136 1256 ft 171 kts 213°
2026-05-09 15:40 40.60537 -73.79960 1823 ft 185 kts 212°
2026-05-09 15:40 40.59353 -73.80847 2262 ft 210 kts 212°
2026-05-09 15:41 40.57995 -73.81852 2790 ft 234 kts 211°
2026-05-09 15:41 40.56546 -73.82935 3661 ft 244 kts 211°
2026-05-09 15:41 40.54997 -73.83923 4664 ft 252 kts 198°
2026-05-09 15:41 40.53234 -73.84017 5657 ft 261 kts 173°
2026-05-09 15:42 40.51555 -73.83040 6659 ft 271 kts 149°
2026-05-09 15:42 40.50311 -73.81151 7581 ft 281 kts 124°
2026-05-09 15:42 40.49737 -73.78648 8459 ft 296 kts 100°
2026-05-09 15:42 40.49956 -73.75933 9296 ft 313 kts 76°
2026-05-09 15:43 40.51015 -73.73347 10170 ft 324 kts 52°
2026-05-09 15:43 40.52644 -73.71270 10581 ft 339 kts 40°
2026-05-09 15:43 40.54382 -73.69445 10852 ft 354 kts 38°
2026-05-09 15:43 40.56397 -73.67385 11136 ft 370 kts 37°
2026-05-09 15:44 40.58465 -73.65260 11404 ft 385 kts 37°
2026-05-09 15:44 40.60593 -73.63066 11673 ft 400 kts 37°
2026-05-09 15:44 40.62796 -73.60782 12195 ft 407 kts 37°
2026-05-09 15:44 40.64950 -73.58527 12804 ft 412 kts 37°
2026-05-09 15:45 40.67198 -73.56143 13447 ft 416 kts 37°
2026-05-09 15:45 40.69448 -73.53727 14021 ft 421 kts 37°
2026-05-09 15:45 40.71827 -73.51485 14566 ft 420 kts 24°
2026-05-09 15:45 40.74541 -73.50158 15109 ft 413 kts
2026-05-09 15:46 40.77376 -73.49642 15682 ft 411 kts 359°
2026-05-09 15:46 40.80268 -73.49354 16260 ft 413 kts 358°
2026-05-09 15:46 40.83105 -73.49117 16779 ft 416 kts 357°
2026-05-09 15:46 40.86002 -73.48885 16997 ft 418 kts 357°
2026-05-09 15:47 40.88905 -73.48651 17032 ft 418 kts 357°
2026-05-09 15:47 40.91806 -73.48417 17025 ft 418 kts 357°
2026-05-09 15:47 40.94673 -73.48567 16987 ft 407 kts 343°
2026-05-09 15:47 40.97315 -73.49692 16984 ft 393 kts 327°
2026-05-09 15:48 40.99546 -73.51656 16989 ft 380 kts 311°
2026-05-09 15:48 41.01267 -73.54231 16994 ft 370 kts 297°
2026-05-09 15:48 41.02432 -73.57214 17308 ft 362 kts 285°
2026-05-09 15:48 41.03039 -73.60430 17775 ft 360 kts 275°
2026-05-09 15:49 41.03358 -73.63722 18273 ft 362 kts 273°
2026-05-09 15:49 41.03643 -73.66853 18687 ft 364 kts 274°
2026-05-09 15:49 41.03965 -73.70183 19119 ft 366 kts 274°
2026-05-09 15:49 41.04297 -73.73537 19557 ft 368 kts 274°
2026-05-09 15:50 41.04633 -73.76905 19977 ft 369 kts 274°
2026-05-09 15:50 41.04970 -73.80283 20377 ft 371 kts 274°
2026-05-09 15:50 41.05310 -73.83679 20753 ft 372 kts 274°
2026-05-09 15:50 41.05652 -73.87086 21120 ft 374 kts 274°
2026-05-09 15:51 41.05993 -73.90503 21462 ft 375 kts 274°
2026-05-09 15:51 41.06335 -73.93942 21765 ft 377 kts 274°
2026-05-09 15:51 41.06677 -73.97390 22076 ft 378 kts 274°
2026-05-09 15:51 41.07016 -74.00799 22373 ft 380 kts 274°
2026-05-09 15:52 41.07689 -74.07687 22973 ft 382 kts 274°
2026-05-09 15:52 41.08033 -74.11182 23258 ft 384 kts 274°
2026-05-09 15:52 41.08385 -74.14693 23544 ft 385 kts 274°
2026-05-09 15:53 41.08732 -74.18216 23794 ft 386 kts 274°
2026-05-09 15:53 41.09076 -74.21740 24019 ft 386 kts 274°
2026-05-09 15:53 41.09418 -74.25276 24258 ft 387 kts 274°
2026-05-09 15:53 41.09761 -74.28817 24484 ft 388 kts 274°
2026-05-09 15:54 41.10100 -74.32370 24694 ft 388 kts 274°
2026-05-09 15:54 41.10440 -74.35874 24859 ft 389 kts 274°
2026-05-09 15:54 41.10787 -74.39485 25014 ft 390 kts 274°
2026-05-09 15:54 41.11120 -74.42999 25128 ft 390 kts 273°
2026-05-09 15:55 41.11458 -74.46579 25264 ft 391 kts 274°
2026-05-09 15:55 41.11687 -74.48994 25354 ft 391 kts 273°
2026-05-09 15:55 41.12137 -74.53743 25532 ft 392 kts 274°
2026-05-09 15:55 41.12476 -74.57325 25656 ft 393 kts 273°
2026-05-09 15:56 41.12814 -74.60919 25785 ft 393 kts 273°
2026-05-09 15:56 41.13152 -74.64526 25904 ft 394 kts 273°
2026-05-09 15:56 41.13624 -74.68114 26026 ft 398 kts 279°
2026-05-09 15:56 41.14189 -74.70489 26095 ft 402 kts 286°
2026-05-09 15:57 41.15419 -74.73852 26188 ft 409 kts 293°
2026-05-09 15:57 41.16846 -74.77130 26303 ft 410 kts 294°
2026-05-09 15:57 41.18293 -74.80395 26429 ft 411 kts 294°
2026-05-09 15:57 41.19735 -74.83669 26541 ft 411 kts 294°
2026-05-09 15:58 41.21170 -74.86949 26648 ft 412 kts 294°
2026-05-09 15:58 41.22595 -74.90193 26741 ft 412 kts 294°
2026-05-09 15:58 41.24045 -74.93536 26849 ft 412 kts 294°
2026-05-09 15:58 41.25450 -74.96803 26927 ft 413 kts 294°
2026-05-09 15:59 41.26887 -75.00112 27011 ft 414 kts 294°
2026-05-09 15:59 41.28325 -75.03424 27102 ft 414 kts 294°
2026-05-09 15:59 41.29763 -75.06751 27200 ft 415 kts 293°
2026-05-09 15:59 41.31191 -75.10082 27303 ft 415 kts 293°
2026-05-09 16:00 41.32622 -75.13413 27416 ft 415 kts 294°
2026-05-09 16:00 41.33593 -75.15660 27481 ft 415 kts 293°
2026-05-09 16:00 41.35490 -75.20064 27625 ft 415 kts 293°
2026-05-09 16:00 41.36928 -75.23392 27748 ft 414 kts 293°
2026-05-09 16:01 41.38345 -75.26706 28003 ft 410 kts 293°
2026-05-09 16:01 41.39749 -75.29978 28298 ft 405 kts 293°
2026-05-09 16:01 41.41140 -75.33221 28614 ft 400 kts 293°
2026-05-09 16:01 41.42512 -75.36416 28937 ft 395 kts 292°
2026-05-09 16:02 41.43863 -75.39573 29261 ft 389 kts 292°
2026-05-09 16:02 41.46492 -75.45767 29888 ft 379 kts 291°
2026-05-09 16:02 41.47697 -75.48850 30142 ft 370 kts 287°
2026-05-09 16:03 41.48653 -75.51990 30386 ft 363 kts 284°
2026-05-09 16:03 41.49552 -75.55127 30501 ft 362 kts 284°
2026-05-09 16:03 41.51341 -75.61399 30565 ft 363 kts 284°
2026-05-09 16:04 41.53149 -75.67709 30604 ft 365 kts 284°
2026-05-09 16:04 41.54975 -75.74064 30637 ft 368 kts 284°
2026-05-09 16:05 41.56796 -75.80468 30667 ft 370 kts 284°
2026-05-09 16:05 41.58630 -75.86914 30694 ft 372 kts 283°
2026-05-09 16:06 41.60471 -75.93399 30715 ft 374 kts 284°
2026-05-09 16:06 41.62324 -75.99913 30744 ft 376 kts 284°
2026-05-09 16:07 41.64169 -76.06487 30761 ft 379 kts 283°
2026-05-09 16:07 41.66032 -76.13090 30801 ft 381 kts 284°
2026-05-09 16:08 41.67906 -76.19738 30830 ft 383 kts 284°
2026-05-09 16:08 41.68839 -76.23069 30966 ft 381 kts 284°
2026-05-09 16:08 41.69764 -76.26367 31248 ft 375 kts 283°
2026-05-09 16:09 41.70667 -76.29611 31484 ft 370 kts 283°
2026-05-09 16:09 41.71567 -76.32828 31591 ft 369 kts 283°
2026-05-09 16:09 41.73354 -76.39245 31665 ft 368 kts 283°
2026-05-09 16:10 41.75147 -76.45667 31711 ft 368 kts 283°
2026-05-09 16:10 41.76921 -76.52068 31870 ft 363 kts 283°
2026-05-09 16:11 41.78675 -76.58395 31886 ft 362 kts 283°
2026-05-09 16:11 41.80417 -76.64723 31887 ft 363 kts 283°
2026-05-09 16:12 41.82173 -76.71083 31865 ft 363 kts 283°
2026-05-09 16:12 41.83914 -76.77414 31869 ft 361 kts 283°
2026-05-09 16:13 41.85648 -76.83732 31865 ft 360 kts 283°
2026-05-09 16:13 41.87357 -76.89978 31863 ft 359 kts 283°
2026-05-09 16:14 41.89059 -76.96254 31870 ft 358 kts 283°
2026-05-09 16:14 41.90762 -77.02534 31860 ft 358 kts 283°
2026-05-09 16:15 41.92450 -77.08824 31859 ft 359 kts 283°
2026-05-09 16:15 41.94154 -77.15117 31857 ft 359 kts 283°
2026-05-09 16:16 41.95857 -77.21407 31856 ft 357 kts 283°
2026-05-09 16:16 41.97536 -77.27687 31853 ft 356 kts 283°
2026-05-09 16:17 41.99208 -77.33942 31854 ft 355 kts 283°
2026-05-09 16:17 42.00888 -77.40209 31854 ft 357 kts 283°
2026-05-09 16:18 42.02588 -77.46499 31848 ft 359 kts 283°
2026-05-09 16:18 42.04308 -77.52815 31848 ft 361 kts 283°
2026-05-09 16:19 42.06036 -77.59172 31845 ft 363 kts 284°
2026-05-09 16:19 42.07770 -77.65573 31843 ft 365 kts 284°
2026-05-09 16:20 42.09505 -77.72010 31846 ft 367 kts 284°
2026-05-09 16:20 42.11245 -77.78447 31845 ft 369 kts 284°
2026-05-09 16:21 42.12983 -77.84964 31843 ft 371 kts 283°
2026-05-09 16:21 42.14749 -77.91531 31846 ft 373 kts 284°
2026-05-09 16:22 42.16503 -77.98144 31841 ft 376 kts 284°
2026-05-09 16:22 42.18270 -78.04814 31856 ft 379 kts 284°
2026-05-09 16:23 42.20053 -78.11527 31838 ft 382 kts 284°
2026-05-09 16:23 42.21855 -78.18294 31834 ft 385 kts 284°
2026-05-09 16:24 42.23664 -78.25117 31836 ft 387 kts 284°
2026-05-09 16:24 42.25441 -78.31982 31835 ft 387 kts 283°
2026-05-09 16:25 42.27143 -78.38875 31834 ft 387 kts 283°
2026-05-09 16:25 42.28848 -78.45777 31839 ft 387 kts 283°
2026-05-09 16:26 42.30558 -78.52671 31829 ft 387 kts 283°
2026-05-09 16:26 42.32258 -78.59572 31825 ft 387 kts 283°
2026-05-09 16:27 42.33950 -78.66483 31814 ft 387 kts 283°
2026-05-09 16:27 42.35641 -78.73394 31814 ft 388 kts 284°
2026-05-09 16:28 42.37334 -78.80337 31799 ft 389 kts 284°
2026-05-09 16:28 42.39029 -78.87277 31795 ft 389 kts 284°
2026-05-09 16:29 42.40722 -78.94222 31796 ft 389 kts 285°
2026-05-09 16:29 42.42433 -79.01156 31798 ft 388 kts 285°
2026-05-09 16:30 42.44136 -79.08107 31801 ft 388 kts 285°
2026-05-09 16:30 42.45829 -79.15050 31802 ft 388 kts 285°
2026-05-09 16:31 42.47514 -79.21993 31802 ft 388 kts 285°
2026-05-09 16:31 42.49175 -79.28900 31801 ft 388 kts 285°
2026-05-09 16:32 42.50578 -79.34722 31800 ft 387 kts 285°
2026-05-09 16:32 42.52537 -79.42796 31800 ft 387 kts 285°
2026-05-09 16:33 42.54200 -79.49744 31799 ft 387 kts 285°
2026-05-09 16:33 42.55876 -79.56689 31799 ft 387 kts 285°
2026-05-09 16:34 42.57535 -79.63637 31801 ft 387 kts 285°
2026-05-09 16:34 42.59196 -79.70589 31804 ft 386 kts 285°
2026-05-09 16:35 42.60806 -79.77558 31804 ft 386 kts 282°
2026-05-09 16:35 42.61464 -79.84752 31806 ft 383 kts 273°
2026-05-09 16:36 42.62049 -79.99221 31796 ft 382 kts 273°
2026-05-09 16:37 42.62363 -80.06443 31802 ft 383 kts 273°
2026-05-09 16:37 42.62673 -80.13665 31795 ft 382 kts 273°
2026-05-09 16:38 42.62976 -80.20878 31799 ft 383 kts 273°
2026-05-09 16:38 42.63273 -80.28040 31796 ft 382 kts 273°
2026-05-09 16:39 42.63568 -80.35247 31800 ft 383 kts 273°
2026-05-09 16:39 42.63857 -80.42445 31794 ft 381 kts 273°
2026-05-09 16:40 42.64145 -80.49638 31798 ft 382 kts 273°
2026-05-09 16:42 42.65137 -80.78363 31791 ft 380 kts 273°
2026-05-09 16:42 42.65371 -80.85531 31789 ft 380 kts 273°
2026-05-09 16:43 42.65563 -80.91486 31787 ft 380 kts 273°
2026-05-09 16:43 42.65789 -80.98647 31786 ft 379 kts 273°
2026-05-09 16:44 42.66012 -81.05801 31778 ft 379 kts 273°
2026-05-09 16:44 42.66231 -81.12954 31778 ft 378 kts 273°
2026-05-09 16:45 42.66445 -81.20097 31775 ft 379 kts 273°
2026-05-09 16:45 42.66723 -81.27237 31772 ft 377 kts 277°
2026-05-09 16:46 42.67509 -81.34288 31767 ft 377 kts 279°
2026-05-09 16:46 42.68332 -81.41330 31758 ft 376 kts 278°
2026-05-09 16:47 42.69138 -81.48364 31758 ft 376 kts 278°
2026-05-09 16:47 42.69957 -81.55394 31751 ft 376 kts 279°
2026-05-09 16:48 42.70767 -81.62415 31745 ft 376 kts 278°
2026-05-09 16:48 42.71562 -81.69431 31739 ft 374 kts 278°
2026-05-09 16:49 42.72352 -81.76435 31734 ft 375 kts 278°
2026-05-09 16:50 42.73521 -81.86876 31728 ft 374 kts 278°
2026-05-09 16:50 42.74302 -81.93858 31723 ft 374 kts 279°
2026-05-09 16:51 42.75073 -82.00825 31716 ft 372 kts 278°
2026-05-09 16:51 42.75837 -82.07789 31711 ft 372 kts 278°
2026-05-09 16:52 42.76589 -82.14742 31707 ft 371 kts 278°
2026-05-09 16:52 42.77337 -82.21694 31699 ft 372 kts 278°
2026-05-09 16:53 42.78080 -82.28634 31693 ft 370 kts 278°
2026-05-09 16:53 42.78822 -82.35577 31683 ft 370 kts 278°
2026-05-09 16:54 42.79577 -82.42491 31681 ft 369 kts 278°
2026-05-09 16:54 42.80315 -82.49403 31679 ft 369 kts 278°
2026-05-09 16:55 42.81076 -82.56295 31678 ft 368 kts 280°
2026-05-09 16:55 42.82010 -82.63146 31678 ft 368 kts 280°
2026-05-09 16:56 42.82944 -82.69991 31675 ft 367 kts 280°
2026-05-09 16:56 42.83870 -82.76826 31673 ft 367 kts 280°
2026-05-09 16:57 42.84784 -82.83619 31669 ft 367 kts 280°
2026-05-09 16:57 42.85700 -82.90454 31659 ft 367 kts 280°
2026-05-09 16:58 42.86619 -82.97283 31655 ft 366 kts 280°
2026-05-09 16:58 42.87529 -83.04112 31656 ft 366 kts 280°
2026-05-09 16:59 42.88432 -83.10946 31660 ft 367 kts 280°
2026-05-09 16:59 42.89334 -83.17774 31659 ft 366 kts 280°
2026-05-09 17:00 42.90224 -83.24598 31661 ft 365 kts 280°
2026-05-09 17:00 42.91399 -83.31330 31660 ft 366 kts 289°
2026-05-09 17:01 42.93497 -83.37674 31658 ft 367 kts 292°
2026-05-09 17:01 42.95666 -83.43989 31657 ft 367 kts 292°
2026-05-09 17:02 42.97805 -83.50309 31658 ft 367 kts 292°
2026-05-09 17:02 42.99937 -83.56634 31661 ft 367 kts 291°
2026-05-09 17:03 43.02066 -83.62959 31660 ft 366 kts 292°
2026-05-09 17:05 43.10537 -83.88276 31658 ft 366 kts 291°
2026-05-09 17:05 43.12652 -83.94627 31659 ft 367 kts 291°
2026-05-09 17:06 43.14755 -84.00986 31656 ft 367 kts 291°
2026-05-09 17:06 43.16857 -84.07356 31658 ft 367 kts 291°
2026-05-09 17:07 43.18964 -84.13737 31656 ft 368 kts 291°
2026-05-09 17:07 43.21055 -84.20081 31660 ft 368 kts 291°
2026-05-09 17:08 43.23150 -84.26476 31661 ft 368 kts 291°
2026-05-09 17:08 43.26305 -84.36078 31667 ft 368 kts 291°
2026-05-09 17:09 43.28399 -84.42495 31672 ft 368 kts 291°
2026-05-09 17:09 43.30489 -84.48919 31673 ft 369 kts 291°
2026-05-09 17:10 43.32579 -84.55349 31670 ft 369 kts 291°
2026-05-09 17:10 43.34664 -84.61780 31672 ft 369 kts 291°
2026-05-09 17:11 43.36752 -84.68231 31670 ft 369 kts 291°
2026-05-09 17:11 43.38837 -84.74687 31673 ft 369 kts 291°
2026-05-09 17:12 43.40912 -84.81152 31673 ft 370 kts 291°
2026-05-09 17:12 43.42993 -84.87616 31670 ft 370 kts 291°
2026-05-09 17:13 43.45060 -84.94091 31676 ft 370 kts 291°
2026-05-09 17:13 43.47166 -85.00553 31677 ft 370 kts 291°
2026-05-09 17:14 43.49269 -85.07013 31677 ft 370 kts 291°
2026-05-09 17:14 43.51367 -85.13477 31679 ft 370 kts 291°
2026-05-09 17:15 43.53466 -85.19954 31682 ft 370 kts 291°
2026-05-09 17:15 43.55559 -85.26431 31676 ft 370 kts 291°
2026-05-09 17:17 43.63889 -85.52405 31682 ft 371 kts 291°
2026-05-09 17:18 43.65969 -85.58933 31681 ft 371 kts 291°
2026-05-09 17:18 43.68050 -85.65459 31684 ft 372 kts 291°
2026-05-09 17:19 43.70123 -85.72000 31681 ft 372 kts 290°
2026-05-09 17:19 43.72196 -85.78540 31683 ft 372 kts 291°
2026-05-09 17:20 43.74325 -85.85056 31686 ft 372 kts 291°
2026-05-09 17:20 43.76473 -85.91628 31689 ft 372 kts 291°
2026-05-09 17:21 43.78578 -85.98120 31685 ft 372 kts 291°
2026-05-09 17:21 43.80697 -86.04660 31687 ft 373 kts 291°
2026-05-09 17:22 43.82810 -86.11217 31688 ft 373 kts 291°
2026-05-09 17:22 43.84922 -86.17778 31688 ft 373 kts 291°
2026-05-09 17:23 43.87050 -86.24389 31690 ft 378 kts 293°
2026-05-09 17:23 43.89188 -86.31052 31694 ft 378 kts 293°
2026-05-09 17:25 43.95562 -86.51026 31691 ft 377 kts 293°
2026-05-09 17:25 43.97674 -86.57680 31696 ft 377 kts 293°
2026-05-09 17:26 43.99762 -86.64346 31691 ft 376 kts 293°
2026-05-09 17:26 44.01841 -86.70961 31694 ft 376 kts 293°
2026-05-09 17:27 44.03932 -86.77614 31690 ft 376 kts 293°
2026-05-09 17:27 44.06038 -86.84265 31690 ft 376 kts 293°
2026-05-09 17:28 44.08135 -86.90917 31696 ft 376 kts 292°
2026-05-09 17:28 44.10224 -86.97584 31703 ft 376 kts 292°
2026-05-09 17:29 44.12305 -87.04262 31704 ft 376 kts 292°
2026-05-09 17:29 44.14385 -87.10936 31685 ft 376 kts 292°
2026-05-09 17:30 44.16454 -87.17616 31689 ft 375 kts 292°
2026-05-09 17:30 44.18521 -87.24294 31689 ft 375 kts 292°
2026-05-09 17:31 44.20581 -87.30972 31682 ft 375 kts 292°
2026-05-09 17:32 44.25365 -87.46546 31674 ft 375 kts 292°
2026-05-09 17:33 44.27411 -87.53230 31667 ft 374 kts 292°
2026-05-09 17:33 44.29450 -87.59914 31676 ft 374 kts 292°
2026-05-09 17:34 44.31481 -87.66592 31675 ft 374 kts 292°
2026-05-09 17:35 44.38556 -87.89969 31678 ft 373 kts 292°
2026-05-09 17:36 44.40560 -87.96645 31682 ft 372 kts 292°
2026-05-09 17:36 44.42564 -88.03323 31680 ft 372 kts 292°
2026-05-09 17:37 44.44562 -88.09997 31682 ft 371 kts 292°
2026-05-09 17:37 44.46546 -88.16663 31685 ft 371 kts 292°
2026-05-09 17:38 44.48523 -88.23329 31686 ft 371 kts 292°
2026-05-09 17:39 44.51039 -88.33534 31684 ft 371 kts 283°
2026-05-09 17:39 44.52075 -88.40614 31684 ft 370 kts 283°
2026-05-09 17:40 44.53099 -88.47632 31700 ft 370 kts 283°
2026-05-09 17:40 44.54123 -88.54684 31705 ft 369 kts 283°
2026-05-09 17:41 44.55144 -88.61733 31709 ft 369 kts 283°
2026-05-09 17:41 44.56156 -88.68776 31708 ft 368 kts 283°
2026-05-09 17:42 44.57154 -88.75813 31709 ft 368 kts 283°
2026-05-09 17:42 44.58159 -88.82842 31718 ft 367 kts 283°
2026-05-09 17:43 44.59166 -88.89855 31716 ft 367 kts 283°
2026-05-09 17:43 44.60161 -88.96869 31713 ft 366 kts 283°
2026-05-09 17:44 44.61151 -89.03873 31708 ft 366 kts 283°
2026-05-09 17:44 44.62142 -89.10869 31701 ft 365 kts 283°
2026-05-09 17:45 44.63125 -89.17851 31712 ft 364 kts 283°
2026-05-09 17:45 44.64097 -89.24822 31719 ft 363 kts 283°
2026-05-09 17:46 44.65058 -89.31774 31725 ft 362 kts 283°
2026-05-09 17:46 44.66017 -89.38708 31730 ft 361 kts 283°
2026-05-09 17:47 44.66966 -89.45622 31734 ft 360 kts 283°
2026-05-09 17:47 44.67900 -89.52477 31737 ft 359 kts 283°
2026-05-09 17:48 44.68838 -89.59370 31718 ft 359 kts 283°
2026-05-09 17:48 44.69770 -89.66245 31707 ft 358 kts 283°
2026-05-09 17:49 44.70691 -89.73106 31707 ft 357 kts 283°
2026-05-09 17:49 44.71608 -89.79952 31704 ft 356 kts 283°
2026-05-09 17:50 44.72521 -89.86777 31715 ft 355 kts 283°
2026-05-09 17:50 44.73874 -89.97006 31733 ft 353 kts 283°
2026-05-09 17:51 44.74770 -90.03784 31738 ft 352 kts 283°
2026-05-09 17:51 44.75657 -90.10558 31737 ft 352 kts 283°
2026-05-09 17:52 44.76544 -90.17326 31740 ft 351 kts 283°
2026-05-09 17:52 44.77420 -90.24081 31741 ft 351 kts 283°
2026-05-09 17:53 44.78293 -90.30825 31743 ft 350 kts 283°
2026-05-09 17:53 44.79157 -90.37553 31742 ft 349 kts 283°
2026-05-09 17:54 44.80015 -90.44276 31744 ft 348 kts 283°
2026-05-09 17:54 44.80864 -90.50942 31745 ft 348 kts 283°
2026-05-09 17:55 44.81715 -90.57650 31753 ft 348 kts 283°
2026-05-09 17:55 44.82563 -90.64355 31755 ft 347 kts 283°
2026-05-09 17:56 44.83406 -90.71051 31752 ft 347 kts 283°
2026-05-09 17:57 44.84655 -90.81089 31759 ft 347 kts 283°
2026-05-09 17:57 44.85482 -90.87783 31765 ft 346 kts 283°
2026-05-09 17:58 44.86310 -90.94464 31764 ft 346 kts 283°
2026-05-09 17:58 44.87132 -91.01145 31767 ft 346 kts 283°
2026-05-09 17:59 44.87949 -91.07819 31775 ft 345 kts 283°
2026-05-09 17:59 44.88761 -91.14485 31776 ft 345 kts 283°
2026-05-09 18:00 44.89563 -91.21147 31781 ft 344 kts 283°
2026-05-09 18:00 44.90361 -91.27804 31786 ft 344 kts 283°
2026-05-09 18:01 44.91153 -91.34405 31786 ft 344 kts 283°
2026-05-09 18:01 44.91936 -91.41019 31792 ft 344 kts 283°
2026-05-09 18:02 44.92729 -91.47662 31789 ft 343 kts 283°
2026-05-09 18:02 44.93510 -91.54302 31798 ft 343 kts 283°
2026-05-09 18:03 44.94286 -91.60944 31800 ft 343 kts 283°
2026-05-09 18:03 44.95060 -91.67582 31809 ft 342 kts 283°
2026-05-09 18:04 44.95832 -91.74208 31810 ft 342 kts 283°
2026-05-09 18:04 44.96597 -91.80836 31818 ft 342 kts 283°
2026-05-09 18:05 44.97359 -91.87475 31818 ft 343 kts 283°
2026-05-09 18:05 44.98117 -91.94127 31819 ft 343 kts 283°
2026-05-09 18:06 44.98874 -92.00776 31814 ft 343 kts 282°
2026-05-09 18:06 44.99620 -92.07436 31812 ft 343 kts 282°
2026-05-09 18:07 45.00358 -92.14110 31811 ft 344 kts 282°
2026-05-09 18:07 45.01104 -92.20777 31807 ft 344 kts 282°
2026-05-09 18:08 45.01835 -92.27407 31825 ft 344 kts 282°
2026-05-09 18:08 45.02572 -92.34134 31833 ft 344 kts 282°
2026-05-09 18:09 45.03302 -92.40774 31851 ft 344 kts 282°
2026-05-09 18:09 45.04037 -92.47467 31851 ft 345 kts 282°
2026-05-09 18:10 45.04771 -92.54215 31852 ft 345 kts 282°
2026-05-09 18:10 45.05489 -92.60881 31858 ft 345 kts 282°
2026-05-09 18:11 45.06214 -92.67639 31851 ft 346 kts 282°
2026-05-09 18:11 45.06929 -92.74320 31851 ft 346 kts 282°
2026-05-09 18:12 45.07645 -92.81053 31846 ft 346 kts 282°
2026-05-09 18:12 45.08358 -92.87791 31847 ft 346 kts 282°
2026-05-09 18:13 45.09071 -92.94535 31851 ft 347 kts 282°
2026-05-09 18:13 45.09779 -93.01288 31855 ft 347 kts 282°
2026-05-09 18:14 45.10489 -93.08047 31858 ft 347 kts 282°
2026-05-09 18:14 45.11187 -93.14814 31859 ft 348 kts 282°
2026-05-09 18:15 45.11877 -93.21590 31858 ft 348 kts 282°
2026-05-09 18:15 45.12562 -93.28376 31856 ft 348 kts 282°
2026-05-09 18:16 45.13253 -93.35168 31868 ft 349 kts 282°
2026-05-09 18:16 45.13944 -93.41973 31866 ft 349 kts 282°
2026-05-09 18:17 45.14660 -93.48766 31862 ft 348 kts 284°
2026-05-09 18:17 45.15961 -93.55346 31865 ft 347 kts 288°
2026-05-09 18:18 45.17360 -93.61898 31887 ft 348 kts 288°
2026-05-09 18:18 45.18750 -93.68471 31878 ft 348 kts 288°
2026-05-09 18:19 45.20129 -93.75055 31893 ft 349 kts 288°
2026-05-09 18:19 45.22194 -93.84948 31887 ft 349 kts 288°
2026-05-09 18:20 45.23547 -93.91517 31907 ft 349 kts 288°
2026-05-09 18:20 45.24913 -93.98134 31908 ft 350 kts 288°
2026-05-09 18:21 45.26282 -94.04758 31908 ft 350 kts 288°
2026-05-09 18:21 45.27647 -94.11392 31909 ft 350 kts 288°
2026-05-09 18:22 45.28778 -94.16915 31905 ft 351 kts 288°
2026-05-09 18:22 45.30135 -94.23566 31908 ft 351 kts 288°
2026-05-09 18:23 45.31501 -94.30230 31909 ft 351 kts 288°
2026-05-09 18:23 45.32856 -94.36900 31912 ft 352 kts 288°
2026-05-09 18:24 45.34213 -94.43585 31922 ft 352 kts 288°
2026-05-09 18:25 45.36245 -94.53616 31928 ft 353 kts 288°
2026-05-09 18:25 45.37594 -94.60327 31927 ft 353 kts 288°
2026-05-09 18:26 45.38940 -94.67038 31931 ft 353 kts 288°
2026-05-09 18:26 45.40286 -94.73763 31926 ft 354 kts 288°
2026-05-09 18:27 45.41626 -94.80504 31928 ft 354 kts 288°
2026-05-09 18:27 45.42963 -94.87256 31929 ft 354 kts 288°
2026-05-09 18:28 45.44292 -94.94010 31931 ft 355 kts 288°
2026-05-09 18:28 45.45621 -95.00780 31932 ft 355 kts 288°
2026-05-09 18:29 45.46954 -95.07552 31941 ft 355 kts 288°
2026-05-09 18:29 45.48283 -95.14337 31943 ft 356 kts 288°
2026-05-09 18:30 45.49603 -95.21128 31947 ft 355 kts 287°
2026-05-09 18:30 45.50924 -95.27914 31950 ft 355 kts 288°
2026-05-09 18:31 45.52241 -95.34706 31948 ft 356 kts 288°
2026-05-09 18:31 45.53554 -95.41510 31950 ft 356 kts 287°
2026-05-09 18:32 45.54862 -95.48325 31947 ft 356 kts 287°
2026-05-09 18:32 45.56165 -95.55152 31950 ft 357 kts 287°
2026-05-09 18:33 45.57465 -95.61987 31952 ft 357 kts 287°
2026-05-09 18:33 45.58761 -95.68831 31953 ft 357 kts 287°
2026-05-09 18:34 45.60056 -95.75691 31950 ft 358 kts 287°
2026-05-09 18:34 45.61356 -95.82557 31949 ft 359 kts 287°
2026-05-09 18:35 45.62659 -95.89437 31947 ft 359 kts 287°
2026-05-09 18:35 45.63963 -95.96326 31950 ft 360 kts 287°
2026-05-09 18:36 45.65246 -96.03193 31950 ft 360 kts 287°
2026-05-09 18:36 45.66538 -96.10161 31948 ft 360 kts 287°
2026-05-09 18:37 45.67813 -96.17046 31953 ft 361 kts 287°
2026-05-09 18:37 45.69092 -96.23991 31954 ft 362 kts 287°
2026-05-09 18:38 45.70375 -96.30948 31988 ft 362 kts 287°
2026-05-09 18:38 45.71654 -96.37926 32010 ft 363 kts 287°
2026-05-09 18:40 45.76734 -96.65960 32011 ft 365 kts 287°
2026-05-09 18:41 45.77996 -96.72995 32007 ft 365 kts 287°
2026-05-09 18:41 45.79257 -96.80044 32000 ft 365 kts 287°
2026-05-09 18:42 45.80523 -96.87108 31990 ft 366 kts 287°
2026-05-09 18:42 45.81783 -96.94179 31985 ft 366 kts 287°
2026-05-09 18:43 45.83037 -97.01271 31984 ft 367 kts 287°
2026-05-09 18:43 45.84286 -97.08371 31978 ft 368 kts 287°
2026-05-09 18:44 45.85538 -97.15491 31978 ft 368 kts 287°
2026-05-09 18:44 45.86784 -97.22624 31986 ft 369 kts 287°
2026-05-09 18:45 45.88029 -97.29774 31987 ft 370 kts 287°
2026-05-09 18:45 45.89272 -97.36940 31991 ft 370 kts 287°
2026-05-09 18:46 45.90514 -97.44120 31990 ft 371 kts 287°
2026-05-09 18:46 45.91751 -97.51316 31998 ft 371 kts 286°
2026-05-09 18:47 45.92985 -97.58528 31997 ft 372 kts 286°
2026-05-09 18:47 45.94218 -97.65748 31999 ft 372 kts 286°
2026-05-09 18:48 45.95436 -97.72920 32001 ft 372 kts 286°
2026-05-09 18:48 45.96658 -97.80151 32003 ft 373 kts 286°
2026-05-09 18:49 45.97881 -97.87393 32004 ft 373 kts 286°
2026-05-09 18:49 45.99099 -97.94659 32004 ft 374 kts 286°
2026-05-09 18:50 46.00303 -98.01936 32009 ft 375 kts 286°
2026-05-09 18:50 46.01479 -98.09243 32014 ft 375 kts 285°
2026-05-09 18:51 46.02654 -98.16561 32018 ft 376 kts 285°
2026-05-09 18:51 46.03834 -98.23901 32021 ft 377 kts 285°
2026-05-09 18:52 46.05007 -98.31257 32022 ft 377 kts 285°
2026-05-09 18:52 46.06183 -98.38629 32026 ft 378 kts 285°
2026-05-09 18:53 46.07367 -98.46013 32031 ft 379 kts 285°
2026-05-09 18:53 46.08537 -98.53408 32028 ft 379 kts 285°
2026-05-09 18:54 46.09702 -98.60825 32031 ft 380 kts 285°
2026-05-09 18:54 46.10868 -98.68251 32033 ft 380 kts 285°
2026-05-09 18:55 46.12027 -98.75702 32036 ft 381 kts 285°
2026-05-09 18:55 46.13163 -98.83120 32040 ft 382 kts 285°
2026-05-09 18:56 46.14314 -98.90593 32043 ft 382 kts 285°
2026-05-09 18:56 46.15477 -98.98089 32031 ft 383 kts 285°
2026-05-09 18:57 46.16630 -99.05600 32035 ft 384 kts 285°
2026-05-09 18:57 46.17774 -99.13122 32037 ft 384 kts 285°
2026-05-09 18:58 46.18917 -99.20669 32036 ft 385 kts 285°
2026-05-09 18:58 46.20044 -99.28231 32039 ft 386 kts 285°
2026-05-09 18:59 46.21182 -99.35809 32039 ft 386 kts 285°
2026-05-09 18:59 46.22314 -99.43402 32044 ft 387 kts 285°
2026-05-09 19:00 46.23444 -99.51008 32044 ft 388 kts 284°
2026-05-09 19:00 46.25137 -99.62443 32043 ft 389 kts 284°
2026-05-09 19:01 46.26254 -99.70095 32046 ft 389 kts 284°
2026-05-09 19:01 46.27371 -99.77749 32042 ft 390 kts 284°
2026-05-09 19:02 46.28486 -99.85422 32047 ft 390 kts 284°
2026-05-09 19:02 46.29596 -99.93111 32050 ft 391 kts 284°
2026-05-09 19:03 46.30700 -100.00814 32049 ft 392 kts 284°
2026-05-09 19:03 46.31806 -100.08533 32048 ft 392 kts 284°
2026-05-09 19:04 46.32908 -100.16264 32050 ft 393 kts 284°
2026-05-09 19:04 46.34001 -100.23958 32052 ft 394 kts 284°
2026-05-09 19:05 46.34919 -100.30464 32053 ft 394 kts 284°
2026-05-09 19:05 46.36186 -100.39501 32049 ft 394 kts 284°
2026-05-09 19:06 46.37272 -100.47287 32057 ft 395 kts 284°
2026-05-09 19:06 46.38354 -100.55087 32053 ft 396 kts 284°
2026-05-09 19:07 46.39434 -100.62905 32052 ft 396 kts 284°
2026-05-09 19:07 46.40512 -100.70740 32056 ft 397 kts 284°
2026-05-09 19:08 46.41579 -100.78585 32062 ft 397 kts 284°
2026-05-09 19:08 46.42466 -100.85121 32061 ft 398 kts 284°
2026-05-09 19:09 46.43530 -100.92991 32061 ft 398 kts 284°
2026-05-09 19:09 46.44590 -101.00878 32059 ft 399 kts 283°
2026-05-09 19:10 46.45643 -101.08786 32061 ft 400 kts 283°
2026-05-09 19:10 46.46687 -101.16677 32064 ft 400 kts 283°
2026-05-09 19:11 46.47748 -101.24610 32066 ft 401 kts 283°
2026-05-09 19:11 46.48799 -101.32554 32064 ft 401 kts 283°
2026-05-09 19:12 46.49837 -101.40518 32063 ft 402 kts 283°
2026-05-09 19:12 46.50877 -101.48497 32062 ft 402 kts 283°
2026-05-09 19:13 46.51908 -101.56487 32059 ft 403 kts 283°
2026-05-09 19:13 46.52937 -101.64486 32059 ft 404 kts 283°
2026-05-09 19:14 46.53962 -101.72515 32062 ft 404 kts 283°
2026-05-09 19:14 46.54990 -101.80581 32069 ft 412 kts 283°
2026-05-09 19:15 46.56039 -101.88909 32063 ft 423 kts 283°
2026-05-09 19:15 46.57093 -101.97328 32061 ft 423 kts 283°
2026-05-09 19:16 46.58131 -102.05677 32051 ft 418 kts 283°
2026-05-09 19:16 46.59161 -102.14003 32054 ft 418 kts 283°
2026-05-09 19:17 46.60184 -102.22334 32048 ft 419 kts 283°
2026-05-09 19:17 46.61210 -102.30683 32060 ft 420 kts 283°
2026-05-09 19:18 46.62217 -102.38992 32056 ft 420 kts 282°
2026-05-09 19:18 46.63240 -102.47425 32050 ft 421 kts 282°
2026-05-09 19:19 46.64241 -102.55770 32049 ft 422 kts 282°
2026-05-09 19:19 46.65249 -102.64172 32051 ft 422 kts 282°
2026-05-09 19:20 46.66248 -102.72608 32056 ft 423 kts 282°
2026-05-09 19:20 46.67234 -102.81053 32058 ft 423 kts 282°
2026-05-09 19:21 46.68227 -102.89510 32060 ft 424 kts 282°
2026-05-09 19:21 46.69205 -102.97984 32056 ft 425 kts 282°
2026-05-09 19:22 46.70185 -103.06471 32058 ft 425 kts 282°
2026-05-09 19:22 46.71158 -103.14962 32059 ft 426 kts 282°
2026-05-09 19:23 46.72132 -103.23478 32060 ft 426 kts 282°
2026-05-09 19:23 46.73092 -103.31994 32067 ft 426 kts 282°
2026-05-09 19:24 46.74046 -103.40530 32070 ft 427 kts 282°
2026-05-09 19:24 46.74999 -103.49081 32072 ft 428 kts 282°
2026-05-09 19:25 46.75947 -103.57643 32076 ft 428 kts 281°
2026-05-09 19:25 46.76889 -103.66224 32079 ft 428 kts 281°
2026-05-09 19:26 46.77822 -103.74811 32087 ft 429 kts 281°
2026-05-09 19:26 46.78752 -103.83359 32092 ft 430 kts 281°
2026-05-09 19:27 46.79680 -103.91981 32088 ft 430 kts 281°
2026-05-09 19:27 46.80602 -104.00611 32097 ft 431 kts 281°
2026-05-09 19:28 46.81518 -104.09255 32104 ft 431 kts 281°
2026-05-09 19:28 46.82430 -104.17919 32100 ft 432 kts 281°
2026-05-09 19:29 46.83332 -104.26590 32101 ft 432 kts 281°
2026-05-09 19:29 46.84234 -104.35272 32107 ft 433 kts 281°
2026-05-09 19:30 46.85123 -104.43968 32101 ft 433 kts 281°
2026-05-09 19:30 46.86012 -104.52666 32101 ft 433 kts 281°
2026-05-09 19:31 46.86892 -104.61384 32100 ft 434 kts 281°
2026-05-09 19:31 46.87764 -104.70112 32108 ft 434 kts 280°
2026-05-09 19:32 46.88627 -104.78855 32100 ft 435 kts 280°
2026-05-09 19:32 46.89489 -104.87606 32106 ft 435 kts 280°
2026-05-09 19:33 46.90344 -104.96384 32103 ft 436 kts 280°
2026-05-09 19:33 46.91194 -105.05160 32099 ft 436 kts 280°
2026-05-09 19:34 46.92046 -105.13953 32084 ft 437 kts 280°
2026-05-09 19:34 46.92892 -105.22758 32097 ft 437 kts 280°
2026-05-09 19:35 46.93731 -105.31575 32085 ft 438 kts 280°
2026-05-09 19:35 46.94562 -105.40414 32081 ft 438 kts 280°
2026-05-09 19:36 46.95390 -105.49256 32091 ft 439 kts 280°
2026-05-09 19:36 46.96211 -105.58112 32088 ft 439 kts 279°
2026-05-09 19:37 46.97024 -105.66975 32083 ft 439 kts 279°
2026-05-09 19:37 46.97832 -105.75851 32089 ft 440 kts 279°
2026-05-09 19:38 46.98629 -105.84668 32089 ft 440 kts 279°
2026-05-09 19:38 46.99421 -105.93564 32093 ft 440 kts 279°
2026-05-09 19:39 47.00211 -106.02461 32089 ft 440 kts 279°
2026-05-09 19:39 47.01003 -106.11356 32088 ft 441 kts 279°
2026-05-09 19:40 47.01793 -106.20267 32085 ft 441 kts 279°
2026-05-09 19:40 47.02574 -106.29188 32086 ft 441 kts 279°
2026-05-09 19:41 47.03357 -106.38112 32088 ft 442 kts 279°
2026-05-09 19:41 47.04131 -106.47039 32090 ft 442 kts 279°
2026-05-09 19:42 47.04887 -106.55978 32090 ft 442 kts 279°
2026-05-09 19:42 47.05652 -106.64928 32090 ft 442 kts 279°
2026-05-09 19:43 47.06397 -106.73872 32092 ft 442 kts 279°
2026-05-09 19:43 47.07141 -106.82831 32095 ft 442 kts 279°
2026-05-09 19:44 47.07883 -106.91796 32093 ft 443 kts 279°
2026-05-09 19:44 47.08604 -107.00702 32090 ft 443 kts 279°
2026-05-09 19:45 47.09329 -107.09662 32088 ft 443 kts 279°
2026-05-09 19:45 47.10050 -107.18641 32089 ft 443 kts 279°
2026-05-09 19:46 47.10754 -107.27618 32087 ft 443 kts 278°
2026-05-09 19:46 47.11451 -107.36612 32079 ft 443 kts 279°
2026-05-09 19:47 47.12158 -107.45598 32080 ft 443 kts 278°
2026-05-09 19:47 47.12849 -107.54600 32078 ft 444 kts 278°
2026-05-09 19:48 47.13531 -107.63605 32078 ft 444 kts 278°
2026-05-09 19:48 47.14207 -107.72604 32076 ft 444 kts 278°
2026-05-09 19:49 47.14873 -107.81622 32073 ft 444 kts 278°
2026-05-09 19:49 47.15536 -107.90630 32071 ft 444 kts 278°
2026-05-09 19:50 47.16190 -107.99653 32067 ft 444 kts 278°
2026-05-09 19:50 47.16835 -108.08671 32068 ft 444 kts 278°
2026-05-09 19:51 47.17478 -108.17695 32064 ft 444 kts 278°
2026-05-09 19:51 47.18114 -108.26726 32061 ft 444 kts 278°
2026-05-09 19:52 47.18740 -108.35754 32063 ft 444 kts 278°
2026-05-09 19:52 47.19357 -108.44795 32062 ft 444 kts 278°
2026-05-09 19:53 47.19973 -108.53836 32064 ft 444 kts 278°
2026-05-09 19:53 47.20571 -108.62872 32067 ft 444 kts 278°
2026-05-09 19:54 47.21175 -108.71914 32073 ft 444 kts 278°
2026-05-09 19:54 47.21767 -108.80952 32078 ft 444 kts 277°
2026-05-09 19:55 47.22339 -108.89993 32084 ft 444 kts 277°
2026-05-09 19:56 47.23197 -109.03478 32092 ft 443 kts 277°
2026-05-09 19:56 47.23663 -109.11043 32106 ft 443 kts 277°
2026-05-09 19:57 47.24229 -109.20065 32121 ft 443 kts 277°
2026-05-09 19:57 47.24793 -109.29085 32129 ft 443 kts 277°
2026-05-09 19:58 47.25332 -109.38113 32140 ft 443 kts 277°
2026-05-09 19:58 47.25856 -109.47083 32138 ft 443 kts 277°
2026-05-09 19:59 47.26389 -109.56106 32134 ft 442 kts 277°
2026-05-09 19:59 47.26922 -109.65126 32131 ft 442 kts 277°
2026-05-09 20:00 47.27439 -109.74146 32125 ft 442 kts 277°
2026-05-09 20:00 47.27944 -109.83168 32116 ft 442 kts 277°
2026-05-09 20:01 47.28439 -109.92188 32122 ft 442 kts 277°
2026-05-09 20:01 47.28933 -110.01205 32127 ft 442 kts 277°
2026-05-09 20:02 47.29416 -110.10227 32130 ft 442 kts 277°
2026-05-09 20:02 47.29891 -110.19241 32134 ft 441 kts 277°
2026-05-09 20:03 47.30591 -110.32766 32137 ft 442 kts 276°
2026-05-09 20:03 47.31055 -110.41800 32140 ft 442 kts 276°
2026-05-09 20:04 47.31511 -110.50827 32148 ft 442 kts 276°
2026-05-09 20:04 47.31973 -110.59851 32154 ft 442 kts 276°
2026-05-09 20:05 47.32424 -110.68891 32155 ft 442 kts 276°